KD8OUK Weather Reports


time (UTC)temp
F
wind
direction
speed
knots
gust
knots
rain 1hr
in
rain 24hr
in
rain mn
in
humidity
%
barometer
mb
20260506231530 52 297 1.7 3.5 0.00 2.60 0.70 64 1014.2
20260506231021 52 282 1.7 2.6 0.00 2.63 0.70 64 1014.2
20260506230525 52 279 2.6 4.3 0.00 2.65 0.70 62 1014.2
20260506230023 52 287 3.5 6.1 0.00 2.67 0.70 62 1014.5
20260506225516 52 269 2.6 5.2 0.00 2.69 0.70 61 1014.5
20260506225020 52 278 3.5 5.2 0.00 2.70 0.70 60 1014.5
20260506224518 53 294 4.3 7.8 0.00 2.71 0.70 60 1014.5
20260506224017 53 285 4.3 7.0 0.00 2.71 0.70 59 1014.5
20260506223521 53 292 3.5 4.3 0.00 2.72 0.70 59 1014.5
20260506223031 53 277 3.5 6.1 0.00 2.72 0.70 59 1014.5
20260506222523 53 263 3.5 6.1 0.00 2.72 0.70 58 1014.2
20260506222015 53 265 3.5 6.1 0.00 2.72 0.70 59 1014.2
20260506221525 53 302 3.5 5.2 0.00 2.72 0.70 59 1014.2
20260506221017 53 277 3.5 6.1 0.00 2.73 0.70 58 1014.1
20260506220528 53 291 4.3 6.1 0.00 2.73 0.70 58 1014.1
20260506220019 53 322 3.5 6.1 0.00 2.73 0.70 58 1014.1
20260506215530 53 295 3.5 5.2 0.00 2.73 0.70 59 1014.1
20260506215022 53 324 1.7 2.6 0.00 2.74 0.70 60 1014.1
20260506214532 53 265 2.6 5.2 0.00 2.74 0.70 59 1014.1
20260506214024 53 280 2.6 4.3 0.00 2.74 0.70 58 1014.1
20260506213516 53 270 3.5 5.2 0.00 2.75 0.70 57 1013.8
20260506213026 53 257 4.3 6.1 0.00 2.76 0.70 58 1013.8
20260506212518 53 38 1.7 5.2 0.00 2.76 0.70 59 1013.8
20260506212028 53 273 3.5 6.1 0.00 2.78 0.70 57 1013.8
20260506211520 54 5 3.5 5.2 0.00 2.80 0.70 57 1013.8
20260506211031 54 289 3.5 6.1 0.00 2.83 0.70 58 1013.8
20260506210523 54 281 3.5 10.4 0.00 2.84 0.70 58 1013.8
20260506210033 54 284 3.5 6.1 0.00 2.85 0.70 58 1013.7
20260506205525 54 282 2.6 5.2 0.00 2.86 0.70 58 1013.7
20260506205017 53 276 2.6 4.3 0.00 2.87 0.70 59 1013.7
20260506204527 53 302 2.6 4.3 0.00 2.89 0.70 60 1013.7
20260506204019 53 281 3.5 6.1 0.00 2.92 0.70 58 1013.7
20260506203529 53 330 3.5 5.2 0.00 3.00 0.70 56 1013.7
20260506203022 53 309 2.6 4.3 0.00 3.08 0.70 57 1013.7
20260506202526 54 291 3.5 7.0 0.00 3.18 0.70 55 1013.6
20260506202024 54 282 5.2 7.8 0.00 3.20 0.70 56 1013.6
20260506201516 55 303 2.6 5.2 0.00 3.20 0.70 57 1013.6
20260506201020 55 321 3.5 6.1 0.00 3.20 0.70 55 1013.5
20260506200518 54 308 3.5 6.1 0.00 3.20 0.70 57 1013.5
20260506200017 54 288 4.3 7.0 0.00 3.20 0.70 58 1013.6
20260506195521 54 299 2.6 4.3 0.00 3.20 0.70 58 1013.7
20260506195031 54 280 3.5 5.2 0.00 3.20 0.70 58 1013.8
20260506194523 54 268 4.3 7.0 0.00 3.20 0.70 58 1013.8
20260506194015 54 294 3.5 7.0 0.00 3.20 0.70 59 1013.8
20260506193525 54 265 4.3 7.0 0.00 3.20 0.70 58 1013.8
20260506193017 54 277 3.5 5.2 0.00 3.20 0.70 57 1013.8
20260506192527 54 276 3.5 8.7 0.00 3.20 0.70 57 1013.7
20260506192019 54 270 3.5 5.2 0.00 3.20 0.70 58 1013.6
20260506191530 54 277 3.5 5.2 0.00 3.20 0.70 58 1013.6
20260506191022 54 280 4.3 7.8 0.00 3.20 0.70 58 1013.6
20260506190532 54 309 3.5 5.2 0.00 3.20 0.70 58 1013.6
20260506190024 54 293 4.3 6.1 0.00 3.20 0.70 58 1013.5
20260506185516 55 268 4.3 6.1 0.00 3.20 0.70 58 1013.5
20260506185026 55 246 5.2 7.0 0.00 3.20 0.70 58 1013.5
20260506184518 55 276 4.3 5.2 0.00 3.20 0.70 59 1013.5
20260506184028 55 253 0.9 4.3 0.00 3.21 0.70 61 1013.5
20260506183521 55 317 2.6 4.3 0.00 3.21 0.70 60 1013.5
20260506183030 54 226 1.7 2.6 0.00 3.21 0.70 60 1013.5
20260506182524 54 261 2.6 5.2 0.00 3.21 0.70 61 1013.6
20260506182033 54 236 1.7 3.5 0.00 3.21 0.70 61 1013.7
20260506181525 54 277 3.5 5.2 0.00 3.21 0.70 61 1013.7
20260506181017 54 72 2.6 5.2 0.00 3.21 0.70 63 1013.8
20260506180527 54 114 1.7 2.6 0.00 3.21 0.70 61 1013.8
20260506180020 55 313 2.6 4.3 0.00 3.21 0.70 59 1013.7
20260506175530 55 320 3.5 7.8 0.00 3.21 0.70 59 1013.6
20260506175022 55 284 3.5 5.2 0.00 3.21 0.70 58 1013.6
20260506174526 55 185 1.7 3.5 0.00 3.21 0.70 60 1013.5
20260506174024 56 284 4.3 7.0 0.00 3.21 0.70 57 1013.5
20260506173516 57 279 6.1 9.6 0.00 3.21 0.70 55 1013.4
20260506173020 57 273 4.3 7.8 0.00 3.21 0.70 57 1013.4
20260506172518 57 283 4.3 7.8 0.00 3.21 0.70 56 1013.5
20260506172016 58 297 4.3 7.8 0.00 3.21 0.70 57 1013.6
20260506171520 58 279 6.1 7.8 0.00 3.21 0.70 57 1013.6
20260506171031 59 273 6.1 11.3 0.00 3.21 0.70 57 1013.7
20260506170523 59 14 4.3 7.8 0.00 3.21 0.70 56 1013.7
20260506170015 60 281 5.2 7.0 0.00 3.21 0.70 57 1013.5
20260506165525 59 248 3.5 7.0 0.00 3.21 0.70 57 1013.5
20260506165017 57 147 2.6 5.2 0.00 3.21 0.70 60 1013.4
20260506164528 57 242 3.5 7.0 0.00 3.21 0.70 58 1013.4
20260506164020 58 245 4.3 9.6 0.00 3.21 0.70 59 1013.4
20260506163530 57 266 3.5 6.1 0.00 3.21 0.70 60 1013.5
20260506163022 56 261 3.5 6.1 0.00 3.21 0.70 63 1013.5
20260506162532 55 248 3.5 6.1 0.00 3.21 0.70 61 1013.4
20260506162024 55 116 3.5 6.1 0.00 3.21 0.70 61 1013.3
20260506161517 55 123 2.6 4.3 0.00 3.21 0.70 63 1013.3
20260506161027 55 348 3.5 6.1 0.00 3.21 0.70 65 1013.5
20260506160520 55 251 3.5 7.8 0.00 3.21 0.70 68 1013.5
20260506160029 55 117 3.5 7.8 0.00 3.21 0.70 68 1013.5
20260506155523 55 237 3.5 7.0 0.00 3.21 0.70 67 1013.5
20260506155032 56 282 6.1 8.7 0.00 3.21 0.70 66 1013.5
20260506154524 56 304 4.3 7.0 0.00 3.21 0.70 70 1013.4
20260506154016 55 26 2.6 5.2 0.00 3.21 0.70 69 1013.4
20260506153526 54 346 2.6 5.2 0.00 3.21 0.70 70 1013.1
20260506153018 55 273 4.3 6.1 0.00 3.21 0.70 72 1013.1
20260506152528 53 254 3.5 6.1 0.00 3.21 0.70 75 1012.9
20260506152020 53 296 4.3 7.0 0.00 3.21 0.70 76 1012.8
20260506151530 52 287 4.3 7.0 0.00 3.21 0.70 76 1012.7
20260506151023 52 292 3.5 9.6 0.00 3.22 0.70 80 1012.6
20260506150527 51 267 1.7 4.3 0.00 3.22 0.70 82 1012.6
20260506150025 50 275 3.5 7.0 0.00 3.22 0.70 82 1012.8
20260506145517 50 309 3.5 6.1 0.00 3.22 0.70 85 1012.9
20260506145021 49 288 2.6 4.3 0.00 3.22 0.70 86 1012.7
20260506144520 49 293 4.3 6.1 0.00 3.22 0.70 85 1012.6
20260506144019 49 277 2.6 6.1 0.00 3.22 0.70 84 1012.6
20260506143516 49 253 3.5 6.1 0.00 3.22 0.70 83 1012.6
20260506143032 49 276 4.3 6.1 0.00 3.22 0.70 85 1012.6
20260506142524 48 324 3.5 7.0 0.00 3.22 0.70 87 1012.6
20260506142016 49 301 3.5 6.1 0.00 3.22 0.70 86 1012.6
20260506141526 49 271 2.6 5.2 0.00 3.22 0.70 84 1012.4
20260506141019 49 294 3.5 6.1 0.00 3.22 0.70 86 1012.1
20260506140529 48 280 3.5 5.2 0.00 3.22 0.70 85 1012.1
20260506140021 48 298 3.5 6.1 0.00 3.22 0.70 88 1012.1
20260506135531 48 263 3.5 6.1 0.00 3.22 0.70 87 1012.1
20260506135023 47 252 2.6 5.2 0.00 3.22 0.70 87 1012.1
20260506134515 47 266 1.7 4.3 0.00 3.22 0.70 89 1012.1
20260506134025 46 351 2.6 4.3 0.00 3.22 0.70 92 1012.1
20260506133517 46 29 2.6 5.2 0.00 3.22 0.70 94 1012.1
20260506133027 46 280 2.6 3.5 0.00 3.22 0.70 93 1012.1
20260506132519 46 298 2.6 4.3 0.00 3.22 0.70 94 1012.2
20260506132029 46 298 3.5 7.0 0.00 3.22 0.70 95 1012.3
20260506131522 45 275 1.7 3.5 0.00 3.22 0.70 97 1012.2
20260506131032 45 289 1.7 3.5 0.00 3.22 0.70 99 1012.1
20260506130524 45 310 0.9 3.5 0.00 3.22 0.70 99 1012.1
20260506130016 45 277 1.7 2.6 0.00 3.22 0.70 99 1012.0
20260506125526 44 272 0.9 1.7 0.00 3.22 0.70 99 1011.9
20260506125019 44 285 1.7 3.5 0.00 3.22 0.70 99 1011.8
20260506124529 44 270 0.9 3.5 0.00 3.22 0.70 99 1011.6
20260506124017 44 274 1.7 2.6 0.00 3.22 0.70 99 1011.6
20260506123526 44 259 0.9 1.7 0.00 3.22 0.70 99 1011.3
20260506123017 44 242 0.9 2.6 0.00 3.22 0.70 99 1011.3
20260506122527 43 255 0.9 4.3 0.00 3.22 0.70 99 1011.3
20260506122019 43 225 0.0 1.7 0.00 3.22 0.70 99 1011.3
20260506121523 43 307 0.9 2.6 0.00 3.22 0.70 99 1011.3
20260506121021 42 209 0.9 2.6 0.00 3.22 0.70 99 1011.2
20260506120520 42 288 0.9 3.5 0.00 3.22 0.70 99 1011.2
20260506120017 42 270 1.7 3.5 0.00 3.22 0.70 99 1011.1
20260506115517 42 90 0.9 1.7 0.00 3.22 0.70 99 1011.0
20260506115032 42 70 0.9 2.6 0.00 3.22 0.70 99 1010.8
20260506114525 42 298 0.9 2.6 0.00 3.22 0.70 99 1010.7
20260506114016 42 278 0.9 3.5 0.00 3.22 0.70 99 1010.7
20260506113527 42 259 0.9 2.6 0.00 3.22 0.70 99 1010.3
20260506113019 42 0.0 0.9 0.00 3.22 0.70 99 1010.3
20260506112529 42 113 0.0 1.7 0.00 3.22 0.70 99 1010.1
20260506112021 42 252 1.7 2.6 0.00 3.22 0.70 99 1010.0
20260506111531 42 203 0.0 1.7 0.00 3.22 0.70 99 1010.0
20260506111023 42 236 0.0 2.6 0.00 3.22 0.70 99 1010.0
20260506110515 42 0.0 0.0 0.00 3.22 0.70 99 1010.0
20260506110027 42 0.0 0.0 0.00 3.22 0.70 99 1010.0
20260506105518 42 0.0 0.0 0.00 3.22 0.70 99 1010.0
20260506105028 42 98 0.9 2.6 0.00 3.22 0.70 99 1010.1
20260506104520 42 90 0.0 1.7 0.00 3.22 0.70 99 1010.2
20260506104030 42 90 0.9 2.6 0.00 3.22 0.70 99 1010.2
20260506103523 42 287 0.9 2.6 0.00 3.22 0.70 99 1009.7
20260506103033 42 0.0 1.7 0.00 3.22 0.70 99 1009.7
20260506102525 42 212 0.0 2.6 0.00 3.22 0.70 99 1009.5
20260506102017 42 291 1.7 4.3 0.00 3.22 0.70 99 1009.3
20260506101527 42 276 0.9 1.7 0.00 3.22 0.70 99 1009.4
20260506101019 42 174 0.0 1.7 0.00 3.22 0.70 99 1009.5
20260506100529 42 113 0.0 1.7 0.00 3.22 0.70 99 1009.5
20260506100021 42 184 1.7 2.6 0.00 3.22 0.70 99 1009.5
20260506095531 42 227 0.0 2.6 0.00 3.22 0.70 99 1009.5
20260506095023 42 172 0.9 3.5 0.00 3.22 0.70 99 1009.4
20260506094527 42 78 0.9 3.5 0.00 3.22 0.70 99 1009.3
20260506094024 42 83 0.9 1.7 0.00 3.23 0.70 99 1009.3
20260506093516 42 286 1.7 3.5 0.00 3.24 0.70 99 1008.6
20260506093019 42 270 0.9 2.6 0.01 3.24 0.70 99 1008.6
20260506092518 42 168 0.9 3.5 0.01 3.25 0.70 99 1009.0
20260506092017 42 144 0.9 1.7 0.02 3.26 0.70 99 1009.3
20260506091520 42 273 1.7 3.5 0.02 3.28 0.70 99 1009.1
20260506091030 42 257 1.7 3.5 0.02 3.30 0.70 99 1008.7
20260506090523 42 270 0.0 1.7 0.03 3.33 0.70 99 1008.7
20260506090033 42 180 0.0 2.6 0.03 3.34 0.70 99 1008.2
20260506085525 42 90 0.9 2.6 0.04 3.34 0.70 99 1008.1
20260506085017 42 107 2.6 2.6 0.04 3.34 0.70 99 1008.6
20260506084527 42 111 2.6 2.6 0.04 3.34 0.70 99 1008.9
20260506084020 42 128 0.9 1.7 0.04 3.34 0.70 99 1008.9
20260506083529 42 220 0.0 1.7 0.04 3.34 0.70 99 1009.1
20260506083023 42 18 0.9 2.6 0.03 3.33 0.69 99 1009.1
20260506082532 42 90 0.9 2.6 0.03 3.33 0.69 99 1009.0
20260506082024 42 0.0 0.0 0.02 3.32 0.68 99 1008.9
20260506081516 42 158 0.0 1.7 0.02 3.32 0.68 99 1009.0
20260506081026 42 113 0.9 2.6 0.02 3.32 0.68 99 1009.0
20260506080518 42 147 1.7 3.5 0.02 3.31 0.67 99 1009.0
20260506073525 43 0.0 2.6 0.08 3.30 0.66 99 1008.6
20260506073017 43 72 1.7 5.2 0.10 3.30 0.66 99 1008.6
20260506072527 43 99 2.6 4.3 0.13 3.30 0.66 99 1008.7
20260506072019 43 153 1.7 3.5 0.14 3.30 0.66 99 1008.8
20260506071529 43 121 1.7 2.6 0.15 3.30 0.66 99 1008.8
20260506071021 43 113 1.7 3.5 0.16 3.30 0.66 99 1008.9
20260506070526 43 103 0.9 3.5 0.15 3.29 0.65 99 1008.9
20260506062015 43 328 1.7 3.5 0.22 3.16 0.52 99 1009.1
20260506061525 43 119 0.9 2.6 0.24 3.15 0.51 99 1009.0
20260506061017 43 336 1.7 2.6 0.26 3.14 0.50 99 1008.7
20260506060529 43 215 0.9 2.6 0.28 3.14 0.50 99 1008.7
20260506051026 44 173 0.9 1.7 0.23 2.88 0.24 99 1009.1
20260506050518 44 124 1.7 2.6 0.21 2.86 0.22 99 1009.1
20260506045031 44 46 0.9 3.5 0.21 2.84 0.20 99 1008.9
20260506044523 44 122 0.9 3.5 0.21 2.84 0.20 99 1009.0
20260506044033 44 0.0 1.7 0.21 2.83 0.19 99 1009.0
20260506043525 44 132 1.7 3.5 0.19 2.80 0.16 99 1009.1
20260506043019 44 144 1.7 2.6 0.17 2.78 0.14 99 1009.1
20260506042528 44 103 1.7 2.6 0.14 2.75 0.11 99 1009.3
20260506042020 44 90 0.9 2.6 0.11 2.72 0.08 99 1009.5
20260506041524 44 126 1.7 3.5 0.07 2.68 0.04 99 1009.4
20260506041023 44 106 0.9 3.5 0.05 2.65 0.01 99 1008.9
20260506040522 45 101 2.6 5.2 0.06 2.65 0.01 99 1008.9
20260506040029 45 104 1.7 3.5 0.06 2.64 0.00 99 1009.0
20260506035518 45 146 1.7 2.6 0.08 2.64 2.64 99 1009.0
20260506035016 45 83 1.7 2.6 0.08 2.63 2.63 99 1008.8
20260506034528 45 105 2.6 4.3 0.09 2.63 2.63 99 1008.6
20260506034018 45 145 1.7 4.3 0.12 2.62 2.62 99 1008.6
20260506033528 45 103 1.7 4.3 0.13 2.61 2.61 99 1008.5
20260506033020 45 113 2.6 5.2 0.16 2.61 2.61 99 1008.5
20260506032530 46 101 2.6 4.3 0.19 2.61 2.61 99 1008.6
20260506032022 46 117 2.6 5.2 0.23 2.61 2.61 99 1008.6
20260506031533 46 112 2.6 4.3 0.24 2.61 2.61 99 1008.7
20260506031025 46 118 1.7 3.5 0.24 2.60 2.60 99 1008.7
20260506030517 46 102 3.5 5.2 0.24 2.59 2.59 99 1008.7
20260506030027 46 113 3.5 5.2 0.24 2.58 2.58 99 1009.2
20260506025519 46 110 3.5 5.2 0.22 2.56 2.56 99 1009.3
20260506025029 46 108 1.7 2.6 0.23 2.55 2.55 99 1009.3
20260506024521 46 112 1.7 2.6 0.23 2.54 2.54 99 1009.5
20260506024031 46 103 1.7 3.5 0.21 2.50 2.50 99 1009.5
20260506023524 46 114 1.7 2.6 0.21 2.48 2.48 99 1009.5
20260506023016 46 100 1.7 3.5 0.21 2.45 2.45 99 1009.5
20260506022526 47 146 1.7 3.5 0.21 2.42 2.42 99 1009.6
20260506022019 47 94 1.7 3.5 0.20 2.38 2.38 99 1009.7
20260506021529 47 79 0.9 4.3 0.23 2.37 2.37 99 1009.6
20260506021021 47 313 2.6 4.3 0.26 2.36 2.36 99 1009.3
20260506020531 47 225 2.6 4.3 0.30 2.35 2.35 99 1009.3
20260506020021 47 125 2.6 4.3 0.32 2.34 2.34 99 1009.3
20260506015531 48 41 0.9 1.7 0.35 2.34 2.34 99 1009.3
20260506015023 48 144 1.7 2.6 0.35 2.32 2.32 99 1009.4
20260506014517 48 109 0.9 3.5 0.35 2.31 2.31 99 1009.5
20260506014025 48 108 0.9 2.6 0.34 2.29 2.29 99 1009.5
20260506013518 48 108 0.9 3.5 0.33 2.27 2.27 99 1009.5
20260506013022 48 209 0.9 2.6 0.31 2.24 2.24 99 1009.5
20260506012520 48 139 0.9 1.7 0.29 2.21 2.21 99 1009.4
20260506012018 48 169 0.9 2.6 0.29 2.18 2.18 99 1009.3
20260506011516 48 154 1.7 4.3 0.28 2.14 2.14 99 1009.3
20260506011032 48 275 1.7 3.5 0.30 2.10 2.10 99 1009.1
20260506010524 49 126 1.7 4.3 0.30 2.05 2.05 99 1009.1
20260506010017 49 302 1.7 4.3 0.32 2.02 2.02 99 1009.0
20260506005527 49 90 0.9 1.7 0.36 1.99 1.99 99 1008.9
20260506005020 49 133 1.7 3.5 0.43 1.97 1.97 99 1008.9
20260506004529 49 113 1.7 3.5 0.54 1.96 1.96 99 1008.8
20260506004021 49 107 1.7 3.5 0.64 1.95 1.95 99 1008.8
20260506003532 50 258 3.5 5.2 0.76 1.94 1.94 99 1008.7
20260506003024 50 225 2.6 4.3 0.93 1.93 1.93 99 1008.7
20260506002516 50 99 1.7 2.6 1.04 1.92 1.92 99 1008.6
20260506002026 50 135 2.6 2.6 1.10 1.89 1.89 99 1008.4
20260506001518 51 115 1.7 3.5 1.12 1.86 1.86 99 1008.4
20260506001028 51 149 1.7 2.6 1.09 1.80 1.80 99 1008.3
20260506000521 51 261 1.7 3.5 1.06 1.75 1.75 99 1008.3
20260506000031 52 39 1.7 4.3 1.03 1.70 1.70 99 1008.3
20260505235523 52 211 0.9 1.7 0.98 1.63 1.63 99 1008.3
20260505235016 53 163 2.6 3.5 0.90 1.54 1.54 99 1008.3
20260505234525 53 113 2.6 4.3 0.79 1.42 1.42 99 1008.2
20260505234017 54 133 2.6 6.1 0.68 1.31 1.31 99 1008.2
20260505233523 56 313 3.5 7.8 0.56 1.18 1.18 99 1007.7
20260505233032 58 285 4.3 6.1 0.38 1.00 1.00 99 1007.7
20260505232525 58 246 3.5 4.3 0.26 0.88 0.88 99 1007.8
20260505232017 58 239 2.6 3.5 0.17 0.79 0.79 99 1007.8